Location: Ku?niki
(51.4449°N, 17.8974°E)
Time: 03:52:05
(UTC+00:00)

Cosmos 1844 Rocket - Pass Details

Date: 18 September 2020
Orbit: 823 x 846 km, 71.0° (Epoch: 22 October)

Event Time Altitude Azimuth Distance (km) Brightness Sun altitude
Rises 19:40:30 0° 216° (SW) 3,350 5.8 -24.7°
Reaches altitude 10° 19:42:56 10° 218° (SW) 2,422 5.1 -25.0°
Maximum altitude 19:48:28 70° 303° (WNW) 880 2.8 -25.6°
Drops below altitude 10° 19:54:04 10° 27° (NNE) 2,448 5.2 -26.3°
Sets 19:56:33 0° 30° (NNE) 3,389 6.0 -26.6°
